Location: Cointrin
(46.2167°N, 6.1167°E)
Time: 19:57:40
(UTC+00:00)

Cosmos-2242 - Pass Details

Date: 08 February 2023
Orbit: 587 x 612 km, 82.5° (Epoch: 20 March)

Event Time Altitude Azimuth Distance (km) Brightness Sun altitude
Rises 18:06:49 0° 359° (N) 2,829 6.4 -13.6°
Reaches altitude 10° 18:09:12 10° 9° (N) 1,923 5.4 -14.0°
Maximum altitude 18:13:03 33° 74° (ENE) 995 3.6 -14.7°
Enters shadow 18:16:41 11° 138° (SE) 1,839 5.1 -15.3°
